Home   Weather   Corona   Past weeks
Flag for USA

Past Weather in Corona, California, USA — Yesterday and Last 2 Weeks

Now
76 °F

Passing clouds.


Feels Like: 77 °F
Forecast: 83 / 53 °F
Wind: 5 mph from Southwest

Location: Chino Airport

Current Time: Oct 19, 2019 at 12:51:07 pm

Latest Report: Oct 19, 2019 at 11:53 am


Visibility: 10 mi

Pressure: 29.93 "Hg

Humidity: 31%

Dew Point: 43 °F

Location of CoronaLocation

Past Weather in Corona — Graph

°F

Corona Temperature Yesterday

Maximum temperature yesterday: 81 °F (at 1:53 pm)
Minimum temperature yesterday: 52 °F (at 6:53 am)
Average temperature yesterday: 65 °F

High & Low Weather Summary for the Past Weeks

 TemperatureHumidityPressure
High96 °F (Oct 6, 2:53 pm)97% (Oct 9, 6:53 am)30.06 "Hg (Oct 9, 6:53 am)
Low45 °F (Oct 12, 5:53 am)4% (Oct 10, 3:53 pm)29.74 "Hg (Oct 17, 3:53 pm)
Average67 °F51%29.90 "Hg
* Reported Oct 4 10:53 am — Oct 19 10:53 am, Corona. Weather by CustomWeather, © 2019

Note: Actual official high and low records may vary slightly from our data, if they occured in-between our weather recording intervals... More about our weather records

Advertising

Corona Weather History for the Previous 24 Hours

Scroll right to see more
 ConditionsComfort  
Time TempWeatherWind HumidityBarometerVisibility
10:53 am
Sat, Oct 19
70 °FPassing clouds.3 mph46%29.95 "Hg10 mi
9:53 am65 °FSunny.3 mph54%29.96 "Hg10 mi
8:53 am60 °FSunny.No wind62%29.95 "Hg10 mi
7:53 am52 °FSunny.No wind80%29.94 "Hg10 mi
6:53 am50 °FClear.No wind80%29.92 "Hg10 mi
5:53 am51 °FClear.No wind77%29.90 "Hg8 mi
4:53 am50 °FClear.3 mph80%29.90 "Hg10 mi
3:53 am52 °FClear.3 mph77%29.90 "Hg8 mi
2:53 am52 °FClear.No wind75%29.91 "Hg9 mi
1:53 am54 °FClear.No wind69%29.90 "Hg8 mi
12:53 am56 °FClear.No wind65%29.90 "Hg10 mi
11:53 pm
Fri, Oct 18
58 °FClear.No wind58%29.90 "Hg9 mi
10:53 pm59 °FClear.No wind58%29.90 "Hg7 mi
9:53 pm62 °FClear.No wind50%29.90 "Hg9 mi
8:53 pm63 °FClear.5 mph48%29.89 "Hg10 mi
7:53 pm63 °FClear.6 mph47%29.89 "Hg10 mi
6:53 pm68 °FClear.8 mph44%29.88 "Hg10 mi
5:53 pm74 °FSunny.10 mph45%29.87 "Hg10 mi
4:53 pm80 °FSunny.12 mph26%29.86 "Hg10 mi
3:53 pm81 °FSunny.10 mph25%29.87 "Hg10 mi
2:53 pm81 °FSunny.13 mph34%29.87 "Hg10 mi
1:53 pm81 °FSunny.No wind30%29.88 "Hg10 mi
12:53 pm78 °FSunny.5 mph37%29.90 "Hg10 mi
Weather by CustomWeather, © 2019

See weather overview